Wahpeton, MN

11:32 AM CST on January 20, 2018 (GMT -0600)
Stern

Weather History for KBWP - February, 2013

Change the Weather History Date:

Sunday, February 24, 2013

  Actual Average (KFFM) Record (KFFM)
Temperature  
Mean Temperature 8 °F -  
Max Temperature 21 °F 26 °F 48 °F (1958)
Min Temperature -4 °F 5 °F -22 °F (1955)
Degree Days  
Heating Degree Days 56    
Moisture  
Dew Point 4 °F    
Average Humidity 83    
Maximum Humidity 93    
Minimum Humidity 74    
Precipitation  
Precipitation 0.00 in - - ()
Sea Level Pressure  
Sea Level Pressure 30.03 in    
Wind  
Wind Speed 3 mph (SSE)    
Max Wind Speed 10 mph    
Max Gust Speed -    
Visibility 8 miles    
Events      
Averages and records for this station are not official NWS values.
T = Trace of Precipitation, MM = Missing Value Source: NWS Daily Summary

Daily Weather History Graph

Daily Weather History Graph

Search for Another Location

Airport or City:

Trip Planner

Search our weather history database for the weather conditions in past years. The results will help you decide how hot, cold, wet, or windy it might be!

Date:

Astronomy

Feb. 24, 2013 Rise Set
Actual Time 7:13 AM CST 6:05 PM CST
Civil Twilight 6:43 AM CST 6:36 PM CST
Nautical Twilight 6:08 AM CST 7:11 PM CST
Astronomical Twilight 5:34 AM CST 7:45 PM CST
Moon 5:18 PM CST (2/24) 6:13 AM CST (2/24)
Length of Visible Light 11h 52m
Length of Day
10h 52m
Waxing Gibbous, 99% of the Moon is Illuminated
Feb 24
Waxing Gibbous
Feb 25
Full
Mar 4
Last Quarter
Mar 11
New
Mar 19
First Quarter

Hourly Weather History & Observations

Time (CST) Temp. Windchill Dew Point Humidity Pressure Visibility Wind Dir Wind Speed Gust Speed Precip Events Conditions
12:15 AM -2.2 °F - -5.8 °F 85% 29.95 in 0.2 mi Calm Calm - N/A   Overcast
12:35 AM -0.4 °F - -4.0 °F 85% 29.95 in 0.5 mi Calm Calm - N/A   Overcast
12:55 AM -0.4 °F - -4.0 °F 85% 29.96 in 0.5 mi Calm Calm - N/A   Overcast
1:15 AM -0.4 °F - -4.0 °F 85% 29.96 in 3.0 mi Calm Calm - N/A   Overcast
1:35 AM 1.4 °F - -4.0 °F 78% 29.95 in 7.0 mi Calm Calm - N/A   Overcast
1:55 AM 1.4 °F -6.2 °F -2.2 °F 85% 29.96 in 0.8 mi ESE 3.5 mph - N/A   Overcast
2:15 AM 1.4 °F - -4.0 °F 78% 29.96 in 0.8 mi Calm Calm - N/A   Overcast
2:35 AM 1.4 °F - -4.0 °F 78% 29.96 in 3.0 mi Calm Calm - N/A   Overcast
2:55 AM 1.4 °F - -4.0 °F 78% 29.97 in 1.5 mi Calm Calm - N/A   Overcast
3:15 AM -0.4 °F - -4.0 °F 85% 29.97 in 1.0 mi Calm Calm - N/A   Overcast
3:55 AM -0.4 °F - -5.8 °F 78% 29.97 in 0.5 mi Calm Calm - N/A   Overcast
4:15 AM -0.4 °F - -5.8 °F 78% 29.98 in 0.8 mi Calm Calm - N/A   Overcast
4:35 AM -2.2 °F - -5.8 °F 85% 29.99 in 0.8 mi Calm Calm - N/A   Overcast
4:55 AM -2.2 °F - -7.6 °F 78% 29.99 in 0.8 mi Calm Calm - N/A   Overcast
5:15 AM -2.2 °F - -5.8 °F 85% 29.99 in 5.0 mi Calm Calm - N/A   Overcast
5:35 AM -2.2 °F - -7.6 °F 78% 29.99 in 10.0 mi Calm Calm - N/A   Overcast
5:55 AM -2.2 °F - -7.6 °F 78% 30.00 in 4.0 mi Calm Calm - N/A   Overcast
6:15 AM -2.2 °F - -5.8 °F 85% 30.01 in 7.0 mi Calm Calm - N/A   Overcast
6:35 AM -4.0 °F - -7.6 °F 85% 30.01 in 10.0 mi Calm Calm - N/A   Overcast
6:55 AM -4.0 °F - -7.6 °F 85% 30.01 in 10.0 mi Calm Calm - N/A   Mostly Cloudy
7:15 AM -2.2 °F - -5.8 °F 85% 30.01 in 7.0 mi Calm Calm - N/A   Mostly Cloudy
7:35 AM -0.4 °F - -5.8 °F 78% 30.01 in 10.0 mi Calm Calm - N/A   Scattered Clouds
7:55 AM -0.4 °F - -5.8 °F 78% 30.02 in 10.0 mi Calm Calm - N/A   Scattered Clouds
8:15 AM -0.4 °F - -4.0 °F 85% 30.02 in 10.0 mi Calm Calm - N/A   Overcast
8:35 AM 1.4 °F - -4.0 °F 78% 30.03 in 10.0 mi Calm Calm - N/A   Scattered Clouds
8:55 AM 1.4 °F - -2.2 °F 85% 30.03 in 10.0 mi Calm Calm - N/A   Scattered Clouds
9:15 AM 3.2 °F - -0.4 °F 85% 30.04 in 10.0 mi Calm Calm - N/A   Scattered Clouds
9:35 AM 3.2 °F - -0.4 °F 85% 30.04 in 10.0 mi Calm Calm - N/A   Clear
9:55 AM 3.2 °F - 1.4 °F 92% 30.04 in 10.0 mi Calm Calm - N/A   Clear
10:15 AM 5.0 °F - 1.4 °F 85% 30.04 in 7.0 mi Calm Calm - N/A   Clear
10:35 AM 6.8 °F -2.0 °F 3.2 °F 85% 30.05 in 4.0 mi SSE 4.6 mph - N/A   Scattered Clouds
10:55 AM 6.8 °F -3.5 °F 3.2 °F 85% 30.06 in 5.0 mi SSE 5.8 mph - N/A   Scattered Clouds
11:15 AM 8.6 °F 0.1 °F 5.0 °F 85% 30.05 in 10.0 mi SE 4.6 mph - N/A   Clear
11:35 AM 10.4 °F -1.5 °F 6.8 °F 85% 30.06 in 7.0 mi SSE 8.1 mph - N/A   Clear
11:55 AM 12.2 °F 4.3 °F 8.6 °F 85% 30.07 in 10.0 mi SSE 4.6 mph - N/A   Clear
12:15 PM 12.2 °F 1.7 °F 8.6 °F 85% 30.06 in 10.0 mi South 6.9 mph - N/A   Clear
12:35 PM 12.2 °F 2.9 °F 10.4 °F 92% 30.06 in 10.0 mi SSE 5.8 mph - N/A   Clear
12:55 PM 14.0 °F 5.1 °F 10.4 °F 86% 30.06 in 7.0 mi SSE 5.8 mph - N/A   Clear
1:15 PM 14.0 °F 2.9 °F 12.2 °F 93% 30.05 in 10.0 mi SSE 8.1 mph - N/A   Clear
1:35 PM 17.6 °F 6.4 °F 14.0 °F 86% 30.04 in 10.0 mi SE 9.2 mph - N/A   Clear
1:55 PM 17.6 °F 7.3 °F 12.2 °F 79% 30.03 in 10.0 mi SE 8.1 mph - N/A   Clear
2:15 PM 19.4 °F 7.9 °F 12.2 °F 74% 30.03 in 10.0 mi SSE 10.4 mph - N/A   Clear
2:35 PM 19.4 °F 7.9 °F 12.2 °F 74% 30.03 in 10.0 mi SE 10.4 mph - N/A   Clear
2:55 PM 19.4 °F 7.9 °F 14.0 °F 80% 30.03 in 10.0 mi SSE 10.4 mph - N/A   Clear
3:15 PM 21.2 °F 10.9 °F 14.0 °F 74% 30.03 in 10.0 mi SSE 9.2 mph - N/A   Clear
3:35 PM 21.2 °F 10.9 °F 14.0 °F 74% 30.02 in 10.0 mi SSE 9.2 mph - N/A   Clear
3:55 PM 21.2 °F 10.9 °F 14.0 °F 74% 30.02 in 10.0 mi SSE 9.2 mph - N/A   Clear
4:15 PM 21.2 °F 10.9 °F 14.0 °F 74% 30.03 in 10.0 mi SSE 9.2 mph - N/A   Clear
4:35 PM 21.2 °F 11.7 °F 14.0 °F 74% 30.03 in 10.0 mi SSE 8.1 mph - N/A   Clear
4:55 PM 19.4 °F 8.6 °F 14.0 °F 80% 30.03 in 10.0 mi SSE 9.2 mph - N/A   Clear
5:15 PM 19.4 °F 10.4 °F 12.2 °F 74% 30.03 in 10.0 mi SSE 6.9 mph - N/A   Clear
5:35 PM 15.8 °F 7.2 °F 12.2 °F 86% 30.04 in 10.0 mi SSE 5.8 mph - N/A   Clear
5:55 PM 15.8 °F 6.1 °F 12.2 °F 86% 30.04 in 10.0 mi SSE 6.9 mph - N/A   Clear
6:15 PM 14.0 °F 5.1 °F 10.4 °F 86% 30.04 in 10.0 mi SSE 5.8 mph - N/A   Clear
6:35 PM 14.0 °F 6.5 °F 10.4 °F 86% 30.05 in 10.0 mi SSE 4.6 mph - N/A   Clear
6:55 PM 14.0 °F 2.9 °F 10.4 °F 86% 30.05 in 10.0 mi SSE 8.1 mph - N/A   Clear
7:15 PM 14.0 °F 3.9 °F 10.4 °F 86% 30.06 in 10.0 mi SSE 6.9 mph - N/A   Clear
7:35 PM 14.0 °F 2.9 °F 10.4 °F 86% 30.06 in 10.0 mi SSE 8.1 mph - N/A   Clear
7:55 PM 14.0 °F 2.9 °F 10.4 °F 86% 30.06 in 10.0 mi SSE 8.1 mph - N/A   Clear
8:15 PM 12.2 °F 1.7 °F 8.6 °F 85% 30.06 in 10.0 mi SSE 6.9 mph - N/A   Clear
8:35 PM 12.2 °F 0.7 °F 8.6 °F 85% 30.06 in 10.0 mi SE 8.1 mph - N/A   Clear
8:55 PM 12.2 °F 2.9 °F 8.6 °F 85% 30.06 in 10.0 mi SSE 5.8 mph - N/A   Scattered Clouds
9:15 PM 12.2 °F 2.9 °F 8.6 °F 85% 30.06 in 10.0 mi SE 5.8 mph - N/A   Mostly Cloudy
9:35 PM 12.2 °F 1.7 °F 8.6 °F 85% 30.06 in 10.0 mi SSE 6.9 mph - N/A   Overcast
9:55 PM 12.2 °F 1.7 °F 10.4 °F 92% 30.06 in 10.0 mi SSE 6.9 mph - N/A   Overcast
10:15 PM 14.0 °F 5.1 °F 10.4 °F 86% 30.06 in 10.0 mi SSE 5.8 mph - N/A   Overcast
10:35 PM 14.0 °F 3.9 °F 10.4 °F 86% 30.06 in 10.0 mi South 6.9 mph - N/A   Overcast
10:55 PM 15.8 °F 5.1 °F 12.2 °F 86% 30.06 in 10.0 mi South 8.1 mph - N/A   Overcast
11:15 PM 15.8 °F 5.1 °F 12.2 °F 86% 30.06 in 10.0 mi South 8.1 mph - N/A   Overcast
11:35 PM 15.8 °F 6.1 °F 12.2 °F 86% 30.06 in 10.0 mi South 6.9 mph - N/A   Overcast
11:55 PM 17.6 °F 9.3 °F 12.2 °F 79% 30.06 in 10.0 mi South 5.8 mph - N/A   Overcast